Theta_e
344 344 348 347 347 348 348 347 349 347 347 346 346 348 344 343 345 348 348 348 348 347 348 348 347 347 347 347 346 346 344 343 342 341 342 342 342 342 342 342 343 343 344 344 345 345 348 349 348 348 348 348 347 347 347 347 345 345 345 344 343 343 343 343 344 346 344 342 342 343 341 344 346 345 342 342 342 341 340 340 340 336 338 340 344
344 348 348 349 347 347 347 347 348 347 348 348 348 348 346 346 346 348 349 348 348 348 347 347 346 346 346 347 344 343 342 341 340 341 341 341 342 342 342 342 342 344 344 344 344 345 346 347 348 348 348 348 347 347 346 345 345 344 342 342 342 342 341 341 341 342 344 343 340 340 340 342 342 343 343 341 341 341 339 339 338 334 335 341 343
347 347 348 348 346 347 347 347 347 346 347 347 348 347 346 347 348 349 349 348 347 347 347 346 345 346 346 346 347 344 341 341 340 340 340 339 340 340 340 340 340 341 341 342 342 345 346 347 347 347 346 346 346 345 345 344 344 342 342 342 342 341 341 340 341 342 341 342 340 338 338 340 340 340 340 341 340 340 339 339 338 337 335 340 340
345 347 347 346 345 345 348 347 348 347 346 348 347 347 346 348 348 348 348 348 347 347 346 346 345 345 345 345 345 345 341 340 340 340 339 339 338 340 339 340 340 340 340 341 348 347 347 347 347 346 346 344 344 344 343 343 342 342 341 341 341 340 341 341 340 341 339 339 339 337 334 333 336 339 339 339 339 339 338 338 338 339 339 339 340
346 347 348 348 348 345 346 347 348 348 348 348 349 348 347 347 347 347 347 347 347 347 346 346 346 345 345 345 346 346 343 340 340 340 340 338 338 338 339 340 339 339 339 341 344 347 346 346 346 346 345 343 342 342 342 341 342 342 341 340 339 339 340 340 339 339 339 338 337 335 332 332 333 337 339 339 339 338 337 338 338 338 339 339 340
344 347 348 348 347 346 343 348 348 348 348 349 348 347 347 347 347 347 347 346 347 347 346 346 346 345 345 345 345 342 341 340 340 339 339 339 338 338 338 339 339 339 339 341 345 346 346 345 345 344 342 341 340 340 341 341 341 340 339 339 338 338 339 339 339 340 339 337 336 333 332 331 332 333 338 339 338 337 337 337 338 338 338 338 338
346 345 347 348 349 346 341 347 347 348 348 348 348 348 348 347 347 346 346 346 346 346 346 346 345 344 345 345 344 344 342 340 340 339 339 339 339 338 338 338 339 339 341 344 345 344 343 343 342 342 342 342 340 340 340 340 339 337 337 338 338 338 339 340 339 338 337 334 331 331 330 331 331 333 337 338 338 337 337 337 338 337 337 337 337
348 348 346 348 347 343 342 347 347 347 348 348 348 348 347 347 347 346 345 345 346 346 346 346 346 345 345 345 343 341 340 340 340 339 339 338 338 338 338 337 338 339 340 340 340 340 340 340 339 341 341 341 341 340 340 339 336 336 337 337 337 337 338 338 337 337 336 330 331 330 330 330 331 332 337 337 338 336 337 337 337 337 337 337 335
345 347 347 348 347 342 343 347 346 347 348 348 348 347 347 346 346 346 346 345 345 345 345 346 345 345 345 345 343 341 339 339 339 339 339 337 337 337 337 337 339 340 340 342 342 343 343 342 342 343 342 342 341 340 338 337 336 337 337 337 337 338 339 338 338 335 332 331 331 330 330 331 331 331 335 336 337 337 336 334 334 335 336 335 335
344 347 349 349 349 341 345 347 347 347 347 348 348 347 346 346 346 345 345 345 345 345 345 345 345 345 345 344 343 341 339 338 339 339 338 338 337 337 337 337 338 339 341 341 342 341 341 341 341 341 341 341 340 338 336 336 336 337 336 336 337 338 337 337 336 335 331 330 330 331 332 334 331 331 334 337 336 336 335 334 334 334 334 335 334
344 347 348 347 350 341 347 348 347 346 347 347 347 347 347 346 345 345 344 345 345 345 345 345 345 345 345 344 343 341 339 337 338 338 337 337 337 337 337 337 338 338 338 339 339 340 340 340 340 340 340 340 338 337 336 336 336 335 335 335 335 337 339 335 333 331 331 331 331 331 333 336 332 332 335 337 338 336 335 336 335 334 334 335 336
344 347 349 348 345 340 347 347 347 347 347 347 347 347 346 346 346 345 345 345 345 345 345 345 345 345 344 344 343 340 337 337 337 338 337 337 337 337 336 338 338 338 338 338 338 339 339 339 339 339 339 339 337 336 336 335 335 335 334 334 335 335 336 335 330 330 333 332 333 332 332 331 331 332 337 337 337 336 336 336 336 336 338 338 338
344 347 348 349 349 338 345 347 347 347 347 347 347 347 346 346 346 345 345 345 345 345 345 345 345 344 344 344 342 339 336 336 338 338 337 337 336 336 336 336 337 338 338 338 337 338 337 337 336 337 337 338 336 336 335 335 335 334 334 333 334 336 334 332 332 334 334 334 333 333 334 335 335 337 339 339 340 340 339 337 337 337 339 339 338
344 345 347 347 348 343 338 343 346 347 346 347 347 347 347 347 345 345 345 345 345 345 345 345 344 344 344 343 342 339 335 336 337 337 337 336 336 335 335 335 337 337 335 335 334 334 334 335 335 336 336 336 335 334 334 334 333 333 332 332 332 333 332 331 332 332 333 333 334 335 335 335 335 338 338 339 339 340 339 338 338 338 338 337 338
344 347 348 346 347 348 341 338 343 345 346 347 347 347 347 347 346 346 346 345 345 346 345 345 344 343 344 343 343 339 335 334 336 337 337 336 336 335 335 334 334 334 334 333 333 333 333 332 335 335 334 333 334 333 333 332 332 332 331 331 332 331 330 328 329 329 331 332 332 333 334 335 336 338 339 340 339 339 338 338 338 338 337 337 337
346 347 347 348 347 349 348 341 333 337 342 345 346 346 347 347 347 347 346 346 345 345 345 344 344 343 343 343 341 337 335 334 335 336 336 335 335 335 335 335 334 334 334 333 333 333 332 331 332 332 332 333 332 332 331 331 331 330 330 330 331 329 327 328 328 327 327 328 330 331 331 334 336 338 338 339 339 338 337 338 337 337 337 336 335
345 347 347 347 348 346 347 346 341 329 333 338 341 343 345 346 347 347 346 346 346 345 345 344 344 343 343 342 339 336 335 334 335 335 335 335 335 334 333 332 333 333 333 333 333 332 331 330 330 331 332 331 331 331 330 330 329 329 329 329 328 327 326 326 327 326 326 327 328 328 329 330 334 336 337 338 337 338 337 336 337 337 335 335 335
345 346 346 347 348 347 347 347 346 345 347 339 335 339 341 344 345 344 345 345 345 345 344 344 343 343 341 340 338 336 335 333 334 334 334 334 334 332 330 330 330 331 331 331 331 331 330 330 329 330 330 330 330 330 329 328 328 327 327 328 327 326 325 325 325 325 325 326 325 328 327 332 332 334 336 337 336 336 335 334 336 336 334 333 332
343 344 345 344 344 345 346 348 346 346 345 347 346 344 335 340 342 342 343 343 343 343 344 341 340 340 337 335 334 332 332 332 333 331 332 332 332 331 329 328 328 328 328 329 331 331 330 329 328 329 329 329 329 328 327 327 326 326 326 326 325 324 323 324 324 326 326 324 324 324 326 331 330 330 333 334 334 335 336 335 335 334 333 333 332
344 344 345 344 345 344 345 345 346 347 347 346 346 347 334 333 337 339 340 341 341 340 338 336 335 333 332 330 329 331 328 329 324 328 328 329 329 327 330 329 328 328 328 329 331 330 330 329 328 328 327 326 326 325 324 325 324 324 325 324 323 323 326 326 325 324 325 325 326 327 330 331 331 331 330 330 331 333 334 332 332 331 331 332 332
340 341 342 343 344 344 345 346 345 345 344 346 345 345 343 331 333 332 334 337 336 335 333 327 326 326 328 327 328 331 330 329 327 327 324 328 322 324 330 329 328 327 327 328 329 329 328 327 326 325 324 322 320 319 320 321 322 322 323 322 321 325 326 326 326 326 326 325 326 328 330 331 331 332 332 331 330 330 331 332 331 329 329 328 329
336 338 340 342 342 343 344 345 345 344 344 344 347 345 345 340 344 345 344 336 330 328 336 339 334 340 327 333 337 333 333 333 329 328 326 326 324 321 324 326 325 325 324 326 327 326 325 325 324 323 322 321 320 319 318 318 319 320 320 319 322 324 325 325 325 324 324 326 328 330 331 331 329 331 331 331 331 331 329 328 330 330 330 329 328
334 336 337 339 341 342 344 342 345 344 346 345 346 346 343 344 345 344 344 335 337 340 342 339 341 341 339 339 336 335 335 333 331 329 327 321 324 320 322 324 324 324 323 323 324 324 323 322 321 319 319 320 318 319 318 319 319 316 316 320 321 322 324 324 323 323 322 322 324 326 330 329 330 331 332 331 331 330 330 330 329 330 330 328 326
334 334 335 337 339 340 343 343 342 343 344 343 345 345 345 343 344 344 342 342 340 342 341 341 340 340 339 338 338 337 335 332 323 322 322 324 323 319 320 321 321 320 319 320 320 320 319 318 317 318 318 315 314 314 315 316 317 318 319 319 319 321 323 323 322 321 320 319 319 326 329 330 331 331 332 332 332 331 330 329 328 327 326 327 327
334 336 335 335 337 338 339 341 342 342 342 342 342 343 344 345 344 343 344 342 341 340 340 341 340 341 339 338 338 337 336 332 328 326 325 322 321 320 319 318 317 317 315 314 313 314 313 315 315 316 315 316 315 314 314 314 314 315 316 317 317 319 320 321 320 320 319 317 317 322 329 329 330 331 331 332 331 331 329 328 327 326 324 323 323
333 334 335 335 335 337 338 340 340 340 340 341 341 342 341 342 342 342 342 342 342 340 340 341 340 341 340 338 339 337 334 331 329 330 328 324 320 318 318 317 317 316 315 313 313 316 318 318 317 316 314 313 312 311 311 311 312 312 312 315 316 316 317 318 319 318 317 316 314 318 326 328 330 331 332 331 332 330 329 329 329 328 325 323 323
332 332 334 335 336 337 336 339 338 338 339 340 340 341 341 341 341 344 341 341 341 340 340 340 340 339 340 339 338 336 334 331 331 331 329 326 323 322 320 320 319 317 317 317 318 319 318 316 315 314 312 311 310 310 309 310 310 310 311 312 313 314 315 315 317 317 316 314 313 315 320 325 328 329 329 331 331 330 329 328 328 328 327 325 324
331 332 332 333 334 334 335 337 336 337 337 338 337 337 338 339 340 340 342 338 340 339 338 339 340 339 339 338 335 337 334 332 331 331 330 330 329 326 322 320 319 319 320 320 319 318 316 315 314 313 311 310 308 308 307 308 308 309 309 310 311 312 313 312 314 315 314 314 313 312 317 322 325 326 327 329 330 329 329 326 326 325 325 325 324
331 331 332 333 333 332 334 335 336 335 336 336 335 337 337 337 339 339 340 337 340 340 340 339 338 338 338 338 338 337 335 333 332 332 332 330 330 326 321 320 321 320 320 319 318 316 315 314 313 312 311 309 307 306 305 305 306 307 307 308 309 310 311 311 312 313 313 313 312 310 314 317 321 323 323 324 325 327 327 326 325 326 325 323 321
330 330 331 333 334 332 331 333 335 334 335 335 334 334 335 336 336 338 339 339 340 340 340 339 339 338 337 337 337 336 335 334 333 332 331 330 330 326 321 321 321 320 320 318 317 315 314 313 312 311 309 308 306 305 304 303 303 304 305 306 308 308 308 309 310 310 312 312 312 310 310 313 317 319 320 322 322 322 322 323 324 324 323 323 322
331 330 331 332 331 332 332 332 334 334 335 334 334 333 335 335 336 337 338 338 339 340 339 339 338 338 337 337 337 337 335 336 334 332 331 330 330 326 322 321 321 320 320 318 317 315 314 312 311 309 308 306 304 304 303 302 302 302 302 303 304 306 306 306 307 308 309 310 311 311 308 308 312 316 317 319 320 321 321 321 321 321 321 320 319
330 330 331 332 331 331 331 332 333 333 333 333 334 333 333 335 336 335 336 337 338 339 339 339 337 339 338 338 337 337 336 335 335 334 332 330 329 326 324 323 322 320 319 318 315 314 313 312 311 309 308 305 303 303 302 301 300 300 300 300 302 303 304 304 304 304 305 306 307 309 308 307 307 309 313 316 318 318 318 318 318 318 318 319 320
329 330 331 331 330 330 330 332 332 333 332 333 332 331 332 332 332 335 335 337 336 337 338 338 338 339 338 337 337 336 336 335 335 334 333 331 330 328 326 325 322 320 319 316 315 313 311 310 308 307 306 304 302 302 303 300 298 298 299 299 299 299 300 301 301 300 300 301 302 303 305 306 305 305 306 310 314 316 316 317 317 316 316 316 316
329 329 330 330 331 331 331 332 332 331 332 332 329 328 328 331 332 331 334 334 335 335 336 337 338 338 338 337 337 336 336 336 336 334 332 331 328 327 325 323 322 320 318 316 314 312 310 308 306 306 304 303 301 301 299 299 298 298 298 298 298 298 299 298 298 298 299 299 299 300 299 301 301 302 303 304 307 311 314 315 315 315 315 315 314
327 327 327 329 330 330 330 330 331 331 330 329 329 328 328 328 329 331 331 334 334 334 335 337 338 338 337 336 336 337 336 336 337 334 332 331 327 326 326 326 325 319 317 315 314 311 309 306 305 304 303 302 301 300 299 298 297 297 297 297 297 298 298 297 298 298 298 298 298 299 298 298 298 298 299 300 301 305 309 312 313 312 313 314 314
324 325 327 329 328 328 328 328 328 327 328 327 328 328 328 328 328 324 329 331 331 333 334 336 336 337 336 335 336 336 337 336 336 336 334 332 328 325 325 325 322 318 316 314 312 309 307 306 305 303 301 300 299 299 299 297 297 296 297 297 297 297 296 297 297 297 297 298 298 298 297 297 297 296 297 295 296 299 304 306 309 311 311 311 313
322 323 323 324 325 326 324 325 325 325 326 325 326 326 326 327 327 327 327 330 330 331 332 335 335 335 335 335 336 336 335 336 336 334 333 331 330 327 324 323 321 317 315 312 311 309 306 306 303 302 302 299 299 299 298 298 297 297 297 297 297 296 296 296 296 297 298 297 296 296 296 297 297 299 297 295 294 294 298 302 305 307 308 309 310
320 320 322 323 323 325 324 324 325 324 324 324 323 323 323 323 324 325 326 327 329 330 332 332 332 332 333 333 334 334 333 335 334 333 332 331 329 328 325 323 320 317 315 312 310 308 306 304 300 301 301 299 298 297 297 297 297 297 296 296 296 296 296 296 296 296 296 296 296 296 296 296 296 296 296 296 296 295 295 296 298 300 303 305 308
318 318 320 321 322 323 322 322 323 322 322 322 321 321 321 320 320 322 324 326 327 329 330 329 329 330 331 332 332 332 331 334 333 331 329 327 326 325 325 322 319 316 313 311 309 308 306 303 301 299 300 300 298 298 296 297 296 296 295 294 294 294 295 295 296 296 295 295 295 296 297 295 295 296 295 295 294 295 295 294 293 293 297 301 304
316 317 318 319 320 321 321 320 320 321 320 319 320 320 319 318 318 321 321 322 324 325 328 328 327 327 329 330 331 330 330 331 333 332 329 325 322 321 322 321 319 315 312 309 307 307 304 302 300 298 298 298 298 297 297 295 294 293 293 293 294 294 294 294 294 294 295 295 294 294 294 294 294 294 294 295 294 294 294 294 294 293 293 296 298
314 315 316 318 318 319 319 318 319 319 318 318 319 318 317 318 319 319 317 319 321 324 324 325 325 326 327 328 328 328 329 328 328 330 328 322 321 320 320 318 317 314 312 310 308 307 304 301 299 299 298 296 296 296 296 295 292 291 292 292 291 292 292 292 292 293 293 293 294 293 293 293 294 293 294 294 294 294 293 294 293 293 294 296 295
312 313 314 316 318 318 318 318 318 318 318 318 319 318 318 317 317 317 317 319 320 321 321 322 323 324 325 326 327 328 329 327 325 325 324 323 321 319 319 317 316 314 313 311 309 305 303 300 299 297 298 296 294 295 295 294 291 289 287 288 289 290 291 290 290 291 292 293 294 294 294 293 293 293 293 292 293 292 292 292 293 293 293 294 294
312 312 313 315 316 317 318 318 318 317 318 319 318 317 317 318 318 319 318 318 321 323 323 323 322 321 322 322 323 323 325 326 324 323 322 321 320 319 317 317 316 314 311 310 309 305 301 299 298 297 295 296 295 296 294 295 292 291 291 288 286 286 288 288 289 289 290 291 292 293 293 293 293 293 293 292 291 291 291 291 292 292 293 294 294
311 311 312 313 315 316 317 317 317 318 318 318 317 318 318 318 319 320 320 319 317 314 314 317 319 319 318 318 319 319 322 323 323 322 322 321 320 319 318 317 315 314 312 309 306 303 300 298 298 297 296 293 293 293 295 296 295 291 287 289 288 289 285 285 286 287 290 290 291 291 292 292 292 293 293 291 290 290 290 291 291 292 292 292 294
310 311 312 313 314 315 317 317 317 317 318 318 317 318 318 317 317 314 315 312 312 312 312 312 314 314 317 314 314 315 318 319 321 321 321 320 319 319 317 316 315 313 311 308 305 302 300 300 299 297 296 294 292 293 295 297 299 296 295 292 289 289 291 290 286 286 288 288 290 290 291 291 291 291 291 291 291 290 290 290 290 291 291 292 293
309 311 312 313 314 315 316 317 317 317 317 318 318 317 316 315 311 310 310 311 310 309 309 310 310 312 314 314 311 313 315 316 318 318 320 320 319 318 317 315 314 312 311 309 306 304 300 299 299 298 297 297 295 293 293 298 301 298 303 303 301 294 293 288 288 284 286 289 289 290 290 291 292 291 291 290 290 289 289 289 290 290 291 292 293
309 311 312 313 314 315 316 316 316 316 317 317 317 316 315 314 313 312 311 311 311 311 313 315 314 312 312 310 311 310 311 313 315 316 317 317 319 318 317 316 314 312 309 308 305 302 300 300 300 299 298 298 298 295 295 297 298 300 302 301 300 298 296 289 288 287 283 287 288 288 288 290 290 290 290 290 290 289 289 289 289 289 290 292 293
310 310 311 312 312 314 315 315 315 316 316 317 316 315 314 314 312 312 312 312 314 314 314 315 314 312 311 309 308 307 308 310 311 313 315 315 316 316 316 314 313 312 309 308 306 304 302 301 301 300 299 299 298 297 297 298 295 296 299 298 295 298 297 301 299 291 289 284 284 287 289 288 289 289 290 289 289 289 288 289 289 289 289 290 291
310 309 310 311 312 313 314 314 315 315 315 316 315 315 313 313 313 312 312 314 315 316 316 315 312 311 311 307 305 306 306 306 308 309 310 312 312 315 315 314 313 312 309 309 306 304 302 301 300 299 298 299 299 300 300 298 297 298 297 297 297 297 297 300 300 297 292 288 285 284 285 287 288 288 288 289 289 290 289 289 289 290 290 290 292
310 311 310 311 312 312 313 313 313 314 314 315 314 314 313 312 312 312 312 313 314 316 316 313 313 310 309 306 305 304 304 304 304 305 306 307 308 309 312 313 313 312 309 310 306 304 303 301 300 300 300 300 300 301 302 300 299 300 298 298 296 295 294 293 294 295 296 295 288 285 285 283 282 285 288 288 288 289 289 289 288 289 290 290 291
309 309 310 310 311 311 312 312 312 314 314 314 313 312 312 312 311 312 313 313 314 315 314 312 311 309 309 308 304 303 303 302 302 302 302 302 303 304 308 311 311 312 310 311 309 306 304 302 301 301 302 302 302 303 303 302 300 301 299 298 297 295 293 291 290 291 291 291 290 287 286 285 285 285 286 288 288 288 289 289 288 288 289 290 290
Wind_Speed
8 8 7 7 3 6 1 5 12 11 11 10 9 12 11 4 5 10 13 13 13 14 14 14 16 16 16 17 17 16 16 16 16 16 14 14 14 14 13 13 15 16 15 15 16 17 18 18 19 19 21 21 20 20 20 20 20 20 20 20 20 19 18 17 16 14 20 24 25 23 23 23 23 23 23 23 23 21 20 19 17 15 14 18 23
11 8 7 8 7 6 7 10 12 9 10 11 11 12 10 9 8 12 13 13 13 13 13 14 16 16 16 17 16 16 16 16 16 15 15 14 14 14 14 13 15 16 15 15 16 16 15 18 19 20 21 21 20 20 19 20 20 19 20 20 19 18 18 17 15 13 10 18 22 22 23 24 23 23 23 23 23 23 20 20 20 15 14 22 24
10 9 8 8 7 6 8 11 13 10 11 10 12 11 9 9 10 12 12 13 13 13 13 14 15 15 16 16 16 16 16 16 16 16 15 15 14 14 14 14 14 15 15 15 16 17 17 18 20 20 20 19 19 19 19 20 19 19 19 19 18 17 16 15 14 12 13 13 17 18 19 24 24 23 23 23 23 23 20 21 21 20 16 24 23
11 8 8 8 6 5 8 7 10 11 11 13 12 12 12 11 12 12 13 13 13 13 14 15 16 16 16 16 16 16 16 16 16 16 16 15 14 14 15 14 14 15 16 16 18 17 18 19 20 20 19 19 19 19 19 19 19 19 18 18 17 16 15 13 12 12 15 15 14 14 11 14 17 23 23 22 23 23 20 20 22 24 24 23 25
10 8 8 8 8 6 6 6 6 8 10 12 13 12 12 12 12 12 12 12 12 13 14 15 15 15 15 16 16 16 16 16 16 16 15 15 14 14 14 14 14 15 16 16 17 19 19 20 20 20 19 18 17 17 18 18 18 18 17 17 16 15 14 12 10 9 14 14 13 13 12 14 12 21 20 23 23 21 20 21 21 22 22 24 25
10 7 8 7 7 7 3 7 6 9 11 12 12 11 11 11 11 11 12 12 12 12 13 15 15 15 15 16 16 15 16 16 15 15 15 15 15 14 14 14 15 15 16 17 18 18 19 20 20 19 19 18 17 17 18 18 18 17 16 16 15 14 12 11 9 7 10 12 13 10 13 14 14 13 21 22 23 21 21 23 22 21 22 23 24
10 8 7 8 6 7 2 6 7 7 11 12 11 12 11 11 11 11 11 12 12 12 13 15 15 14 15 16 16 16 16 15 15 15 16 15 14 14 14 15 15 15 17 18 18 18 19 19 18 17 17 18 18 18 17 18 17 16 16 14 13 11 10 9 11 13 12 10 9 11 11 13 13 11 21 20 20 23 23 23 22 22 22 22 24
9 7 8 7 6 7 3 6 7 6 11 11 11 11 12 11 11 11 10 10 12 11 13 14 14 14 15 16 16 15 15 15 15 15 15 15 15 14 14 15 15 16 16 16 17 18 18 18 17 17 18 19 19 18 18 17 16 16 15 13 12 10 9 7 16 11 10 12 11 11 11 13 13 11 20 21 20 20 21 22 23 23 22 23 18
9 9 8 8 9 9 4 6 7 7 11 11 11 11 12 12 11 10 10 10 12 11 12 13 14 15 15 16 15 15 15 15 14 14 15 15 14 15 15 14 15 16 16 17 18 17 18 18 18 18 19 19 19 18 17 16 16 15 14 12 11 11 8 8 8 15 13 12 12 12 12 13 13 12 18 21 21 21 20 18 19 22 22 20 19
9 8 8 7 8 8 5 6 8 7 10 11 11 11 12 11 11 10 10 10 11 11 12 12 13 14 15 15 15 14 14 14 14 13 13 14 14 14 14 14 14 17 17 16 17 17 17 17 18 18 19 19 18 17 16 16 16 15 14 12 11 10 7 7 13 14 12 13 14 14 12 14 12 12 16 19 21 20 16 16 16 17 16 18 22
10 8 8 9 10 7 8 10 9 9 11 10 11 11 11 11 11 10 9 10 12 11 11 12 13 14 15 14 14 14 14 14 14 13 13 14 14 14 13 15 14 14 15 15 16 17 17 17 16 18 19 19 17 16 16 16 16 15 14 12 12 12 9 13 14 11 12 14 13 12 13 13 11 10 17 18 18 17 12 16 17 18 20 21 22
10 9 8 8 9 7 9 8 9 10 9 9 11 11 11 11 11 10 9 10 12 11 11 12 13 13 14 13 14 13 14 14 14 13 13 14 14 14 13 15 15 15 15 15 16 16 16 17 17 18 18 18 17 16 15 15 15 14 13 12 11 9 8 12 11 11 12 13 12 12 12 12 12 13 17 18 18 17 17 20 20 20 22 22 23
9 8 7 8 9 5 6 7 9 10 11 11 12 11 11 11 10 10 9 9 11 11 11 12 12 13 13 13 14 13 13 14 14 13 13 13 13 13 13 14 15 15 15 15 15 16 16 16 17 17 17 18 17 16 15 15 14 13 13 12 12 11 11 12 11 13 11 10 10 11 12 10 10 17 17 17 19 18 19 20 20 21 22 22 23
10 9 6 8 8 6 5 4 7 10 10 10 11 11 11 10 10 10 9 9 10 11 11 12 12 12 13 13 13 13 13 13 13 13 13 13 14 13 14 14 15 15 15 15 15 15 16 17 17 17 17 17 17 16 15 14 14 14 14 13 12 10 5 12 11 11 11 13 12 13 12 10 11 17 16 17 18 18 18 19 20 22 22 22 23
10 10 9 8 9 8 6 4 4 8 8 8 10 10 11 10 10 10 10 9 10 11 11 12 12 12 12 13 13 13 13 13 13 14 14 14 14 14 14 14 14 14 14 16 16 16 16 16 17 17 17 17 16 16 15 15 15 15 14 13 13 12 10 10 9 10 10 10 10 13 13 11 15 17 18 19 20 20 20 20 21 22 21 22 22
10 10 10 9 9 7 8 6 3 4 6 7 8 8 9 9 8 9 9 9 10 11 11 12 12 13 12 13 13 13 13 13 13 14 13 14 14 14 15 14 14 15 15 15 15 15 16 16 16 16 17 16 16 16 16 15 15 15 14 13 11 12 12 10 9 10 9 8 9 10 11 13 20 20 19 21 22 21 21 21 22 22 24 24 24
9 9 10 9 11 9 9 9 7 5 5 6 7 7 8 8 8 9 8 8 9 10 11 11 12 13 13 13 12 12 12 13 14 14 14 13 14 14 14 14 14 15 15 15 15 16 16 16 16 16 16 17 17 16 16 15 15 14 13 11 12 12 11 12 10 10 10 10 9 9 10 10 16 20 21 22 21 22 22 22 23 24 24 25 27
9 9 9 9 10 9 9 10 8 8 9 6 6 6 6 7 7 8 8 7 8 9 10 10 11 12 12 11 10 10 11 13 13 13 14 13 13 14 15 15 15 16 16 16 16 16 16 16 16 17 16 17 17 16 16 15 15 13 12 10 12 11 10 12 10 10 11 10 10 8 9 13 16 18 21 22 22 23 24 23 25 25 25 26 26
8 9 9 9 9 9 9 9 10 9 10 8 9 7 6 6 7 9 9 8 8 8 8 9 11 12 12 11 10 11 11 11 12 11 11 11 11 13 15 15 16 16 16 16 17 17 17 17 17 17 17 17 17 16 15 15 14 13 11 9 9 8 10 9 10 11 11 10 9 9 9 14 15 16 20 19 20 23 25 25 25 25 25 24 25
6 7 7 7 7 8 8 8 9 10 9 9 8 9 6 7 7 8 9 9 9 9 10 10 11 12 12 13 12 11 10 10 11 9 9 9 10 11 13 14 15 16 16 16 17 17 17 18 17 17 17 17 16 16 15 14 13 12 10 9 8 9 11 10 12 10 9 9 9 9 10 15 17 17 18 18 17 22 24 24 23 24 24 25 26
3 6 6 6 6 7 8 7 9 10 9 8 8 8 7 7 7 8 10 10 10 10 12 11 11 11 11 12 11 9 9 8 9 9 10 9 9 11 12 14 14 14 15 15 16 16 17 17 17 17 17 17 16 15 14 13 13 11 9 8 8 11 9 10 10 10 10 8 9 8 11 13 16 17 17 18 19 19 20 21 22 22 22 23 24
7 8 7 7 8 7 8 9 7 9 9 7 5 7 6 7 10 8 9 8 9 11 10 8 9 9 10 10 8 8 7 7 8 10 9 10 10 11 12 13 14 13 14 15 16 16 17 17 16 16 15 12 10 8 8 9 10 9 9 9 9 10 9 10 10 9 8 7 7 6 11 12 15 17 18 18 19 20 20 21 22 23 24 23 24
9 9 8 9 9 7 8 9 8 8 8 7 5 6 9 9 9 8 6 9 8 9 9 9 9 9 10 9 7 7 7 7 6 7 8 10 10 11 12 12 13 13 14 15 15 15 16 15 14 13 10 7 6 5 6 5 5 6 7 8 8 9 10 11 10 9 9 8 7 9 12 14 15 17 18 19 19 19 20 23 23 23 23 24 23
10 9 8 8 9 9 10 10 9 8 7 6 6 6 6 7 7 7 8 7 7 6 8 9 8 9 9 7 6 6 8 7 13 14 11 9 8 11 12 13 13 12 13 11 13 14 15 14 11 8 5 5 5 5 5 4 5 5 5 6 7 7 9 8 8 8 8 9 9 15 15 15 17 18 18 19 19 20 22 21 22 22 22 23 24
9 9 8 10 12 10 8 10 9 8 7 6 7 6 7 7 7 8 6 7 7 7 5 7 7 9 8 6 6 6 7 8 8 8 7 8 8 8 8 8 8 8 8 8 7 7 7 6 4 5 6 5 5 5 5 5 5 5 5 6 6 7 8 8 7 8 9 9 11 15 14 14 16 17 18 20 19 19 20 21 21 20 21 21 21
9 10 11 11 11 12 10 9 9 8 8 6 7 6 7 7 7 7 7 6 7 7 6 5 7 7 7 6 6 7 8 7 8 7 7 8 8 7 7 7 7 7 7 7 7 6 5 5 5 5 5 5 6 5 5 5 5 5 5 5 6 6 6 7 7 8 8 8 10 16 13 17 17 18 19 20 20 22 21 22 24 23 21 21 21
9 11 11 10 11 13 12 11 8 8 9 8 7 7 6 6 7 7 7 7 6 6 7 5 6 7 7 7 7 7 7 7 7 7 8 8 7 7 7 7 7 7 7 6 6 6 5 5 6 6 6 6 6 6 6 6 5 5 5 5 5 6 6 6 7 8 8 8 11 18 16 14 18 19 19 19 20 20 20 22 22 23 22 22 21
9 10 10 11 11 14 13 13 11 10 9 9 8 6 6 7 6 5 7 7 8 8 7 7 6 7 8 8 8 7 8 8 7 7 7 7 7 7 7 7 7 6 6 6 6 5 5 5 6 7 7 6 7 6 6 6 6 5 6 5 5 5 6 6 6 7 8 8 9 15 14 16 14 19 19 19 20 19 21 20 19 19 21 21 21
10 11 10 11 12 12 14 14 12 12 11 10 10 8 7 8 7 6 7 6 8 7 7 8 7 7 7 8 8 7 8 8 9 7 6 6 6 6 7 7 7 7 7 7 6 6 5 6 6 6 6 6 6 6 5 5 5 5 5 5 5 5 6 6 6 7 7 8 8 12 17 19 17 17 17 17 17 19 20 19 18 21 20 19 19
12 11 11 10 9 11 14 14 12 12 10 10 9 8 9 9 8 7 7 7 9 8 9 7 9 8 8 7 7 8 8 9 9 8 7 6 6 6 6 6 6 6 7 7 7 6 6 6 6 6 6 6 6 5 5 5 5 5 5 5 5 5 4 5 5 6 7 7 8 9 19 19 19 19 18 18 17 16 15 16 17 19 19 19 19
11 13 12 10 9 12 12 11 11 10 10 9 8 9 8 8 8 6 7 8 8 8 8 9 10 9 9 9 9 10 9 9 9 9 9 7 6 8 7 7 6 6 6 7 8 7 7 6 6 6 6 6 6 5 5 5 5 5 5 5 4 4 4 5 5 6 7 7 7 8 12 19 19 20 18 18 17 17 17 16 16 16 16 15 15
12 12 12 11 11 13 12 12 11 8 10 11 7 8 9 8 7 6 5 8 8 8 8 9 9 9 10 10 10 11 10 10 10 10 9 9 9 8 6 6 6 6 6 7 7 6 6 7 6 6 7 6 7 5 5 5 6 5 5 5 4 4 4 5 5 6 6 6 7 7 7 10 18 20 19 17 17 17 17 17 16 16 14 15 16
10 11 11 11 12 12 11 12 12 13 12 13 11 9 9 10 8 7 6 5 7 9 9 9 9 9 9 11 11 11 10 10 10 11 7 9 10 7 5 4 4 5 5 7 9 7 7 7 7 6 7 6 7 6 5 6 6 5 5 5 4 4 4 4 5 5 5 5 5 5 5 7 8 14 17 18 18 19 19 18 17 15 14 13 14
9 8 12 12 11 8 8 9 12 13 13 13 13 11 10 10 9 9 8 6 5 8 9 9 9 9 8 10 10 11 10 10 9 9 8 6 9 8 7 6 5 7 6 7 7 7 7 7 8 7 7 7 7 7 6 6 6 5 5 4 4 4 4 5 4 4 4 5 4 4 4 4 5 6 7 15 19 18 19 18 17 16 14 13 12
9 10 13 13 13 10 8 9 11 13 12 12 12 10 9 10 11 10 10 9 8 9 9 8 8 9 9 8 9 10 11 11 9 9 9 9 9 8 8 7 6 7 7 7 7 7 7 7 7 8 7 6 7 7 7 6 6 6 5 4 4 4 4 5 5 5 5 4 4 4 4 4 4 4 5 6 11 16 17 18 17 16 16 14 13
12 11 11 11 12 11 10 10 10 12 11 11 10 10 9 8 8 8 9 10 9 8 9 9 8 7 9 8 10 10 10 10 10 8 9 8 8 7 8 6 8 7 8 6 7 8 8 6 6 7 8 7 7 7 6 6 6 7 5 4 4 4 4 4 4 5 4 4 4 4 4 5 4 5 5 6 6 9 16 16 17 17 16 16 15
12 11 12 12 12 13 11 12 12 13 12 10 10 10 9 9 9 9 10 9 9 8 8 6 5 6 7 7 9 8 9 10 7 8 8 9 8 9 8 9 8 8 9 7 7 6 7 6 6 4 4 8 7 8 7 6 6 6 5 5 4 4 4 4 4 4 4 4 4 4 5 5 4 5 4 4 5 5 10 15 16 17 16 16 16
12 12 12 12 13 12 11 12 11 11 11 10 10 9 8 8 8 8 8 9 10 9 7 6 6 6 5 6 6 7 8 11 9 8 8 7 8 9 9 10 10 8 8 8 7 6 7 7 7 5 5 7 8 9 8 7 6 5 6 5 4 4 4 4 4 4 4 4 4 4 4 4 4 4 4 3 3 3 4 8 13 15 16 15 16
10 13 12 12 11 11 10 12 12 12 11 10 10 9 8 8 8 9 9 9 9 9 8 8 5 5 6 6 6 6 7 10 9 9 6 6 6 7 10 11 10 9 9 9 7 7 7 7 8 7 5 4 7 8 8 7 7 6 5 5 4 5 3 3 3 3 3 4 4 3 3 4 4 3 3 3 4 3 4 3 4 5 8 16 15
11 12 13 12 13 12 11 11 12 12 11 10 9 9 8 8 9 9 9 10 9 7 7 7 7 6 6 7 7 7 8 7 9 8 8 7 6 6 8 9 9 9 10 10 9 8 10 9 8 9 9 6 4 7 8 8 8 7 7 5 5 4 4 3 4 3 3 3 3 3 3 3 3 3 4 3 4 4 3 3 3 3 5 9 14
11 12 14 14 14 14 13 14 12 12 11 10 10 10 10 8 8 9 10 10 10 9 10 10 8 7 8 9 8 8 9 9 8 7 10 8 7 7 7 8 8 9 9 11 11 10 8 8 8 5 9 9 6 6 7 8 9 7 6 5 5 4 4 3 3 3 2 2 2 3 2 3 3 3 3 4 4 3 3 3 3 3 3 2 5
12 13 15 15 14 14 14 13 11 13 13 12 10 10 9 9 9 10 11 10 10 10 11 9 9 8 9 8 9 8 8 9 7 7 7 8 9 8 10 9 9 8 8 6 7 8 10 9 9 8 2 8 8 9 8 9 6 7 8 6 4 3 3 2 2 2 1 2 2 2 2 3 3 3 4 4 4 4 3 3 2 3 3 3 3
11 13 13 13 13 14 13 12 11 12 12 12 10 10 9 8 8 8 9 9 9 10 11 11 9 9 9 8 6 5 7 8 8 8 8 7 9 9 10 9 10 10 9 8 8 11 11 13 12 10 8 3 6 7 10 8 7 7 6 7 5 4 2 2 2 3 2 2 2 3 3 3 3 3 3 3 3 3 3 3 3 3 2 2 2
10 11 12 14 12 12 13 13 12 12 12 12 10 10 9 9 9 8 9 8 9 2 1 3 7 9 10 8 7 5 7 7 9 9 7 8 8 10 10 11 9 12 11 10 11 11 11 10 10 9 12 10 6 8 9 9 7 11 8 6 7 5 3 7 7 4 3 3 3 4 3 3 4 3 2 3 3 3 3 3 3 2 2 2 2
11 11 12 13 10 14 13 14 12 12 11 11 12 10 9 9 7 2 3 5 3 4 4 5 6 7 9 6 7 5 5 6 8 9 9 11 11 9 10 11 12 13 11 10 9 11 9 12 13 12 12 12 10 8 8 8 6 9 4 6 5 5 6 6 9 4 5 4 3 3 3 4 4 4 3 3 3 3 3 3 3 2 2 2 2
11 11 11 12 11 11 12 12 10 10 10 12 12 10 9 10 8 8 9 10 9 9 10 11 9 9 11 7 5 6 6 6 7 8 9 9 11 12 10 11 10 9 10 11 11 11 11 12 13 11 10 8 13 11 10 8 5 11 3 2 2 2 5 8 8 3 5 3 4 3 4 4 3 3 3 4 4 4 3 3 3 2 2 1 1
10 9 9 10 11 10 11 12 10 9 9 10 12 10 10 10 12 13 12 11 11 11 5 5 6 5 5 6 6 6 5 6 6 7 7 8 12 13 12 9 11 10 7 7 10 12 12 12 11 10 11 11 10 11 12 10 5 5 2 1 2 3 4 10 5 6 4 4 4 4 4 3 4 3 4 5 5 4 3 3 3 2 2 1 1
7 8 8 9 11 11 10 11 10 9 9 9 12 11 10 10 12 13 11 12 10 8 8 7 5 6 6 6 4 6 6 4 4 5 6 7 8 9 10 10 9 10 10 10 10 10 10 10 13 12 11 10 11 10 11 9 10 7 5 3 2 0 5 1 3 5 4 6 5 4 3 4 3 4 4 4 5 4 4 3 3 2 2 1 0
8 9 8 8 9 10 10 11 11 10 10 12 11 11 10 10 10 10 11 10 10 9 7 6 6 6 7 6 5 6 6 4 2 4 4 5 4 7 10 10 10 10 10 10 11 12 13 13 12 10 11 9 8 8 9 9 9 7 7 5 3 3 4 1 1 3 2 3 4 6 5 4 2 3 4 4 3 3 3 3 3 2 1 1 1
7 8 8 8 9 9 11 12 13 10 10 12 11 11 12 10 10 11 12 11 10 10 7 9 7 7 7 7 5 4 5 5 3 2 4 4 6 4 7 9 10 12 12 12 12 14 13 14 15 14 13 12 9 10 10 8 9 7 7 5 5 4 3 2 2 2 1 2 3 7 7 7 6 4 4 4 4 4 3 3 3 2 1 2 1
6 7 7 8 9 10 11 12 13 10 10 12 13 13 12 11 11 12 13 13 13 12 12 9 8 7 8 10 5 4 4 3 4 4 3 4 4 4 6 8 5 9 11 11 11 11 11 12 12 13 13 14 11 11 8 8 8 7 8 7 7 6 5 4 6 4 3 2 3 4 5 6 5 5 5 4 5 4 4 3 3 3 2 1 1
Wind_Direction
149 148 134 99 127 147 136 146 118 117 124 124 123 119 116 117 137 107 100 99 92 85 78 76 75 72 71 71 69 69 72 74 76 78 78 80 81 81 82 82 84 83 80 82 87 88 82 75 73 73 73 69 67 65 63 61 59 59 58 59 58 55 52 48 43 49 69 65 60 57 57 57 57 57 56 55 55 52 49 49 53 53 52 50 49
149 145 134 115 106 113 109 117 120 120 119 124 123 117 132 149 123 100 102 100 94 86 81 78 76 74 73 72 72 72 74 75 78 79 81 83 84 84 83 85 87 84 84 86 84 83 80 76 72 71 70 68 66 65 64 64 63 61 61 60 58 56 52 47 40 40 50 71 68 62 58 58 57 58 59 57 57 56 55 54 56 57 55 54 53
136 138 124 99 82 92 102 114 116 135 126 120 115 121 123 125 109 100 100 101 95 88 83 81 79 77 75 75 76 76 75 74 78 79 82 85 87 91 93 93 92 92 89 85 82 78 78 78 76 74 73 72 70 68 65 65 63 62 61 60 58 55 50 43 37 32 44 64 72 69 64 61 58 57 58 59 59 58 57 59 60 60 58 56 56
136 132 128 103 88 88 107 101 110 127 134 124 123 125 125 111 106 104 101 100 98 91 86 82 80 78 75 75 76 76 76 76 78 80 83 87 90 92 93 91 91 91 92 92 92 91 89 85 82 78 76 72 70 69 70 69 66 63 61 58 55 52 48 42 39 39 53 57 69 70 64 61 60 58 59 59 60 61 60 61 63 63 60 58 58
135 134 130 136 132 96 104 116 122 121 123 117 116 111 111 110 106 103 100 97 97 93 87 84 81 77 76 76 75 74 76 77 79 82 84 88 90 93 96 93 90 92 96 93 84 83 86 85 83 81 77 75 73 72 73 73 70 67 63 61 58 52 47 43 47 57 70 67 64 65 65 65 64 61 61 62 61 61 63 63 62 63 62 60 59
133 147 139 140 135 124 69 137 130 130 123 116 115 113 107 104 101 99 99 102 98 93 90 88 84 79 77 77 77 77 77 79 81 85 87 89 93 97 98 97 96 99 97 93 88 90 87 84 84 83 81 79 77 76 75 74 72 69 67 65 64 60 49 42 48 59 85 80 71 68 66 64 62 59 61 65 64 62 62 63 62 62 62 62 62
138 135 147 135 140 119 98 139 140 143 127 120 118 115 110 104 103 102 105 104 103 98 95 91 87 83 80 80 77 77 79 82 83 84 87 89 90 94 96 99 99 96 95 95 92 86 85 85 84 86 87 85 81 78 77 74 72 71 70 69 65 54 41 41 50 60 66 73 74 75 68 67 67 64 61 63 66 66 65 65 65 64 64 63 62
141 143 144 137 136 120 138 140 148 150 131 124 121 117 112 109 106 106 108 109 108 105 101 96 91 87 83 81 80 82 82 83 85 87 90 92 93 91 89 97 100 99 97 94 91 88 86 87 89 87 85 85 84 79 76 74 73 72 71 66 55 43 29 44 70 56 72 72 63 65 68 70 68 66 64 63 63 66 69 66 64 63 64 64 60
153 149 141 145 116 127 152 152 153 156 135 130 123 120 120 118 115 118 116 115 114 111 104 99 95 91 86 84 85 85 85 85 87 88 91 93 98 97 98 99 100 100 96 93 93 92 90 90 88 87 89 82 78 76 76 75 74 69 63 50 35 22 34 63 92 73 64 69 69 72 71 68 70 71 68 68 67 64 62 65 67 66 63 62 64
155 149 144 135 132 130 157 163 150 139 139 130 125 124 124 121 120 119 119 119 118 116 108 106 102 94 89 88 88 88 88 87 87 90 95 97 96 98 100 102 103 99 103 106 101 99 96 90 85 83 81 82 80 78 77 76 73 68 58 46 33 23 44 56 74 80 82 79 75 72 69 70 71 70 72 73 71 71 75 73 71 71 68 66 66
154 151 146 126 127 128 153 154 145 150 145 136 133 131 128 126 126 126 124 126 120 121 114 108 101 96 93 92 92 91 91 91 92 94 96 96 98 101 101 99 93 94 94 93 98 97 94 91 88 87 87 84 80 80 79 76 74 71 62 45 28 15 40 66 68 75 73 72 76 78 85 81 74 72 75 80 76 78 76 76 72 70 69 67 64
155 154 145 122 121 138 151 149 152 151 145 144 139 136 133 133 131 133 139 134 128 125 118 112 104 98 95 95 94 95 96 96 97 97 98 98 98 101 102 103 99 98 102 101 98 96 93 92 90 88 87 87 85 82 77 75 72 67 58 42 25 20 37 60 70 72 71 73 69 68 61 67 74 77 78 81 80 79 74 73 74 71 68 68 68
157 154 132 131 141 119 153 152 158 156 158 154 146 140 140 139 139 140 143 137 130 126 123 113 106 102 97 95 95 96 98 100 100 100 98 98 100 103 106 104 102 98 99 101 99 98 95 94 95 96 94 88 83 80 76 72 68 60 46 29 18 6 62 66 70 68 69 69 73 72 71 69 64 71 71 74 73 70 73 76 77 76 76 74 73
163 148 134 155 144 127 124 145 162 155 160 156 151 147 146 145 144 146 147 139 132 128 124 118 111 106 100 97 97 98 100 102 103 103 103 103 103 104 104 104 99 100 101 101 96 101 102 99 100 98 94 88 85 79 73 69 62 53 43 35 19 7 60 93 83 76 71 65 61 60 57 60 68 68 77 78 75 74 73 75 75 73 72 74 73
162 159 149 154 152 154 126 132 175 160 159 160 155 154 149 149 150 151 148 141 134 131 128 121 116 110 104 101 99 99 102 103 104 104 105 105 105 106 104 103 102 103 104 105 105 102 100 102 97 96 92 88 83 77 72 67 62 55 46 30 21 12 27 78 81 81 77 73 68 68 68 65 63 69 74 76 75 75 76 78 78 75 73 71 69
165 163 160 159 158 153 160 131 133 156 158 159 162 159 153 154 153 151 146 140 139 135 131 127 122 115 107 100 97 100 101 103 104 104 105 107 107 107 106 103 104 104 102 101 102 101 100 100 101 98 93 85 81 77 73 68 62 57 46 36 21 25 34 57 68 66 69 66 68 66 73 69 64 66 72 74 77 76 74 73 73 70 67 66 66
169 173 167 162 164 167 167 166 148 146 146 164 158 161 160 154 156 142 145 139 137 136 133 133 126 121 111 99 95 96 100 103 105 106 106 106 106 106 106 106 106 106 106 105 104 104 102 102 102 98 90 83 80 77 74 69 62 55 45 33 31 32 43 66 71 71 69 62 66 63 60 61 69 70 67 69 73 76 74 74 71 70 70 67 64
175 177 176 170 170 172 172 170 157 177 170 154 149 160 155 156 149 140 138 136 136 135 136 132 120 111 103 95 96 96 100 102 104 105 105 108 109 110 107 104 102 102 102 102 103 104 105 104 103 98 89 83 80 76 73 68 62 51 44 29 39 35 48 70 78 80 80 70 70 67 64 56 60 67 67 68 73 75 74 72 71 69 67 68 66
190 190 182 176 178 176 177 170 178 179 178 177 175 151 161 141 148 144 139 134 126 126 122 112 112 108 99 95 88 85 81 84 87 87 90 91 96 102 106 106 107 105 105 105 105 106 107 105 104 98 87 84 80 76 71 65 58 50 38 31 35 38 72 76 72 63 60 71 75 74 78 80 70 68 66 65 74 72 70 67 67 68 68 69 70
209 198 186 194 186 182 184 175 187 182 181 177 179 172 145 143 145 142 142 134 128 116 107 109 113 110 108 107 107 103 99 91 91 85 82 92 97 103 106 108 107 106 105 105 104 105 106 106 103 92 86 82 76 71 67 63 57 47 34 38 37 52 60 58 64 68 75 67 67 65 53 65 71 72 71 70 72 76 72 70 71 71 71 70 69
205 188 191 196 187 201 196 190 188 190 182 178 183 173 142 145 139 139 144 136 122 111 108 111 117 120 124 128 136 126 120 117 112 104 95 87 93 101 104 103 103 103 102 102 101 102 103 101 96 95 93 88 81 72 63 60 55 47 34 43 58 70 65 70 67 58 56 59 68 66 64 71 74 75 77 78 77 76 74 72 73 73 71 69 69
194 192 196 201 191 200 209 199 196 192 185 183 178 170 160 183 174 158 161 132 124 125 130 132 141 143 144 155 150 139 140 120 110 114 109 104 90 93 98 102 102 100 100 100 101 101 102 101 101 100 100 101 102 91 78 65 52 47 46 53 68 84 79 75 65 53 44 42 36 34 73 76 80 82 80 80 79 76 76 76 77 75 74 72 69
202 203 199 204 201 188 208 210 197 193 189 189 186 176 182 191 184 170 155 153 145 154 153 147 163 161 167 167 165 156 140 134 127 96 101 88 95 98 99 102 100 97 98 98 100 101 101 100 99 97 96 98 88 90 86 84 72 61 63 71 70 80 85 80 73 65 50 28 27 354 71 82 84 83 87 86 82 81 83 81 78 77 74 71 70
191 202 195 200 203 198 194 213 193 192 191 196 194 189 191 194 193 170 172 172 158 181 167 170 175 177 182 179 175 150 129 98 99 108 113 117 98 91 95 96 95 95 100 98 97 98 101 101 106 122 114 91 91 87 84 74 69 62 62 71 79 73 87 79 75 72 60 38 20 32 64 74 78 81 85 86 85 89 88 86 79 74 73 72 71
194 190 200 199 202 204 194 206 204 190 188 198 207 205 200 197 194 183 183 181 171 177 184 183 183 186 194 191 168 158 131 131 134 145 144 133 131 128 128 126 124 123 127 114 117 125 122 121 129 110 90 88 86 83 83 85 77 69 65 67 76 84 86 87 80 74 61 45 26 19 66 73 81 86 86 88 91 92 92 86 81 78 75 72 70
187 190 196 197 201 204 200 199 195 190 196 195 210 208 216 204 199 193 186 190 188 182 177 195 189 195 197 190 160 163 147 147 156 167 143 146 149 153 147 141 138 135 137 132 139 137 129 118 108 99 86 80 73 66 63 68 70 64 65 63 72 77 81 83 84 78 67 55 29 20 51 73 75 83 88 89 91 88 86 88 89 85 82 77 73
194 201 198 194 194 202 203 203 187 198 200 192 196 214 215 214 209 199 202 191 179 170 176 179 203 198 192 190 177 172 158 162 170 176 158 160 162 163 151 149 150 149 149 141 137 134 120 114 104 98 93 88 80 73 66 63 64 70 68 64 67 77 80 80 82 83 75 60 40 24 37 58 70 78 80 85 85 86 85 79 78 80 76 75 73
196 195 199 204 195 200 200 208 198 200 204 201 191 204 217 224 222 193 215 202 192 191 178 175 186 201 199 194 189 175 171 167 176 185 175 177 169 161 155 156 157 150 145 139 137 124 114 105 104 104 103 95 92 87 81 73 68 64 65 61 64 72 77 79 81 84 79 69 54 31 24 35 65 68 70 78 77 77 74 75 77 76 76 75 74
194 193 198 206 199 200 204 204 204 204 203 206 205 188 204 220 227 218 213 210 206 195 190 177 182 191 200 200 195 186 176 175 181 180 186 188 171 165 160 166 159 150 147 144 133 125 118 117 119 118 113 110 104 97 92 86 80 73 70 66 66 72 76 82 81 81 83 77 61 38 33 31 38 70 67 67 69 72 77 76 78 81 74 73 72
198 195 199 204 191 191 206 204 202 205 206 203 206 206 202 210 221 228 216 188 216 208 189 182 186 172 178 188 204 197 184 180 181 179 182 186 180 160 170 167 164 153 151 142 138 132 130 126 123 121 118 112 105 104 102 93 84 79 76 74 74 78 75 77 81 83 84 79 70 55 41 36 33 56 61 68 65 69 70 72 72 75 77 75 76
194 195 196 192 185 185 194 196 201 207 209 210 207 211 183 204 208 223 229 207 213 217 198 193 200 196 182 183 200 203 187 186 181 184 187 176 186 171 175 166 164 156 157 147 143 141 136 133 136 134 127 118 113 110 109 102 95 87 80 79 79 80 74 71 78 82 84 81 80 71 55 44 41 39 61 67 71 71 71 70 69 74 78 75 71
200 200 201 192 192 190 187 191 196 199 218 211 213 224 223 191 181 196 244 230 209 208 207 204 206 212 199 185 198 204 201 188 187 184 185 170 187 182 168 166 161 156 157 148 137 133 127 127 126 121 119 120 118 118 114 110 102 94 88 85 81 83 80 76 73 70 75 82 84 82 74 66 48 44 42 64 72 68 65 66 66 65 68 72 73
209 205 199 190 196 194 191 191 196 204 209 215 218 221 234 233 212 187 206 231 224 213 217 214 213 210 200 195 198 203 203 197 193 189 186 173 185 172 141 119 149 150 142 139 137 132 129 127 123 131 126 128 122 119 114 112 110 105 98 91 90 87 89 89 83 78 82 83 88 87 92 84 76 55 47 44 56 61 61 62 62 65 67 66 69
196 198 202 200 194 193 194 195 197 205 210 221 229 230 228 227 234 225 208 202 226 223 220 219 209 209 200 200 199 204 205 204 194 180 175 181 179 166 158 158 170 152 145 150 151 144 140 137 138 140 136 135 133 129 126 119 115 110 106 101 99 97 94 86 81 81 83 84 80 85 88 86 80 78 60 45 42 49 57 60 60 59 60 63 63
192 194 197 201 199 195 193 205 205 216 215 215 219 224 223 220 218 224 223 211 220 225 224 220 222 210 201 195 200 204 208 208 196 182 180 183 177 167 163 154 157 144 143 164 158 146 142 144 147 140 142 137 131 126 122 120 118 116 113 111 100 103 95 88 81 76 74 76 73 76 75 76 78 87 78 71 46 44 52 56 58 58 58 57 56
197 193 193 195 196 193 191 197 194 201 202 204 207 210 216 224 230 226 227 221 218 226 228 219 211 212 202 195 199 203 203 209 199 193 180 176 172 167 162 154 152 147 148 156 157 149 147 145 149 148 141 136 131 126 124 123 120 117 115 112 114 108 99 90 84 79 76 78 75 73 71 68 70 74 82 76 72 53 53 55 55 55 56 56 52
196 192 190 189 197 196 188 196 195 199 203 199 201 201 204 212 218 223 224 221 221 217 226 230 192 201 209 206 194 189 203 203 182 188 190 179 177 171 164 163 159 165 158 157 166 148 142 138 142 146 151 135 133 126 123 124 122 116 112 112 110 106 101 97 92 87 77 83 86 83 77 76 74 75 78 93 94 83 60 62 57 50 51 55 56
195 196 193 190 193 193 190 195 198 196 199 198 198 199 203 206 213 222 221 214 221 222 208 220 212 195 195 207 180 172 199 208 186 174 184 176 176 174 170 163 165 169 156 152 164 145 140 143 134 134 143 135 133 135 132 129 125 122 115 114 104 92 89 89 88 99 92 93 84 82 80 77 74 71 76 81 86 90 99 77 67 53 45 54 56
193 195 192 192 191 191 188 189 194 194 196 195 193 197 205 214 220 221 216 211 217 219 210 201 205 199 195 198 180 173 200 198 182 176 161 160 165 170 172 172 170 161 159 152 153 158 144 147 142 130 122 121 132 132 130 130 124 116 109 100 92 90 90 88 98 81 84 82 86 81 85 82 79 74 79 79 78 71 65 67 69 68 54 53 55
191 192 192 190 193 192 188 187 193 192 191 189 187 192 195 202 207 208 213 215 213 209 214 207 197 197 198 190 186 191 193 188 191 170 162 158 156 164 169 168 172 169 165 163 165 164 154 144 139 137 128 107 98 124 127 130 119 111 103 93 85 88 83 85 83 92 101 112 115 115 103 106 96 88 81 79 72 68 70 71 83 89 85 63 59
193 192 193 194 194 192 186 191 188 189 189 189 190 189 189 187 201 206 212 212 210 198 204 210 204 203 198 193 187 192 188 188 178 180 177 160 154 158 159 169 165 170 178 173 168 159 147 141 136 135 134 125 126 138 139 134 128 114 110 106 98 79 78 90 97 97 109 125 121 120 123 115 109 98 86 82 79 72 76 70 70 66 72 94 81
197 196 196 196 195 195 194 192 186 191 196 194 188 189 188 190 190 200 207 206 206 204 205 202 205 205 201 195 194 199 189 186 175 170 171 164 158 157 166 166 167 173 178 168 159 149 146 149 147 128 140 139 145 162 155 144 150 152 148 145 126 115 96 99 107 109 113 108 127 117 126 122 117 115 116 100 91 87 77 77 71 68 63 65 69
195 199 200 195 195 197 199 194 192 192 196 193 186 188 188 189 197 204 201 203 210 214 214 209 200 199 200 192 186 192 191 186 173 167 167 171 159 161 165 166 171 169 166 167 164 163 164 162 164 150 146 145 137 162 169 182 146 146 138 130 160 159 166 179 164 167 158 152 142 135 127 128 131 136 127 121 110 94 82 77 77 72 68 69 76
197 197 197 199 197 199 197 195 193 193 194 193 187 186 183 182 199 218 207 209 206 142 101 141 185 196 198 189 187 188 190 183 178 173 169 175 171 171 166 171 172 175 173 166 169 173 168 163 167 165 149 143 163 178 192 200 157 153 161 200 169 178 165 213 180 170 166 161 164 154 153 143 144 143 141 124 120 113 108 93 88 86 75 66 64
195 197 196 197 198 199 196 195 194 193 193 185 182 178 171 180 177 115 129 97 95 176 189 207 199 197 200 184 189 183 192 176 187 174 175 178 181 178 174 174 178 181 178 168 164 169 168 174 168 163 167 155 166 175 198 215 195 188 149 154 142 213 231 151 150 161 168 172 175 165 155 167 158 164 138 125 122 125 123 121 106 92 87 83 77
197 198 196 198 197 197 197 194 197 194 195 190 180 176 178 181 164 181 194 202 204 196 199 199 190 193 201 187 156 181 191 191 185 179 182 179 181 181 178 174 174 184 183 180 175 171 172 171 177 170 175 176 159 169 184 202 225 205 261 341 329 242 178 140 156 167 169 195 153 174 171 181 166 166 153 145 150 142 133 127 126 110 98 87 85
199 190 191 197 199 198 196 195 197 196 194 190 180 179 182 184 193 203 206 205 206 208 199 193 182 174 172 164 175 178 198 194 186 177 175 180 187 182 176 169 173 172 177 174 179 180 179 181 176 183 178 171 168 172 180 182 200 244 207 207 342 300 108 139 189 111 169 176 187 181 185 180 189 180 162 162 155 149 140 138 135 125 112 106 118
187 181 187 193 198 199 195 196 195 194 189 190 184 186 183 189 198 209 213 217 217 206 192 195 168 164 174 173 167 186 193 205 182 173 174 181 181 172 164 166 168 177 171 177 183 182 181 186 185 183 178 180 180 179 182 178 185 194 178 173 240 4 147 309 155 166 147 158 183 181 170 173 187 199 182 170 164 158 150 150 144 149 128 124 166
178 180 184 188 193 199 197 197 198 194 193 189 187 187 187 193 200 208 216 220 220 219 196 190 162 161 173 164 177 187 189 195 192 170 173 176 185 174 167 170 174 174 177 180 182 182 185 179 181 177 187 190 188 189 183 181 189 186 157 192 196 175 166 169 241 218 151 156 156 176 176 166 208 209 190 174 171 156 163 157 153 149 139 129 170
171 178 180 184 191 195 199 199 201 196 193 189 186 183 189 199 207 208 215 214 210 215 198 196 179 162 179 171 176 172 182 181 173 152 174 189 188 188 180 175 177 178 181 184 181 185 188 188 183 183 183 190 193 201 192 181 183 181 170 169 183 161 161 167 217 201 189 215 168 183 174 171 184 195 178 179 173 167 168 153 151 174 178 177 144
168 179 184 186 189 194 198 202 202 199 195 192 190 188 191 200 210 211 213 214 210 211 210 198 173 165 189 193 170 173 163 163 172 182 165 166 170 184 195 195 183 184 186 188 186 185 188 189 189 190 190 190 193 202 190 179 177 183 172 182 191 184 175 183 182 185 178 173 131 150 152 177 177 155 176 173 172 179 171 167 176 178 195 179 181